This is the latest recevied weather packets stored in our database for station/object LEBL. If no packets are shown the sender has not sent any weather packets the latest 1 day(s).
| Time | Temp. | Humidity | Pressure | Rain* | Wind** | Luminosity | Snow |
|---|---|---|---|---|---|---|---|
| 1778032804 | 13.89° C | 82% | 1011 hPa | - | 2.68 m/s, 320° | - | - |
| 1778031903 | 13.89° C | 82% | 1011 hPa | - | 2.68 m/s, 320° | - | - |
| 1778031004 | 13.89° C | 82% | 1011 hPa | - | 2.24 m/s, 320° | - | - |
| 1778029203 | 13.89° C | 82% | 1011 hPa | - | 3.13 m/s, 330° | - | - |
| 1778028304 | 13.89° C | 82% | 1011 hPa | - | 3.13 m/s, 330° | - | - |
| 1778027404 | 15° C | 76% | 1011 hPa | - | 1.34 m/s, 10° | - | - |
| 1778026504 | 15° C | 76% | 1011 hPa | - | 1.34 m/s, 10° | - | - |
| 1778025605 | 15° C | 76% | 1011 hPa | - | 2.68 m/s, 330° | - | - |
| 1778024704 | 15° C | 76% | 1011 hPa | - | 2.68 m/s, 330° | - | - |
| 1778023804 | 16.11° C | 72% | 1011 hPa | - | 2.68 m/s, 330° | - | - |
| 1778022903 | 16.11° C | 72% | 1011 hPa | - | 2.68 m/s, 330° | - | - |
| 1778021104 | 16.11° C | 67% | 1011 hPa | - | 2.68 m/s, 330° | - | - |
| 1778020216 | 17.22° C | 67% | 1011 hPa | - | 1.34 m/s, 320° | - | - |
| 1778019305 | 17.22° C | 67% | 1011 hPa | - | 1.34 m/s, 320° | - | - |
| 1778017505 | 17.22° C | 63% | 1011 hPa | - | 2.24 m/s, 320° | - | - |
| 1778016605 | 16.11° C | 72% | 1011 hPa | - | 4.02 m/s, 330° | - | - |
| 1778015704 | 16.11° C | 72% | 1011 hPa | - | 4.02 m/s, 330° | - | - |
| 1778014804 | 17.22° C | 67% | 1011 hPa | - | 0.45 m/s, 320° | - | - |
| 1778013904 | 17.22° C | 67% | 1011 hPa | - | 0.45 m/s, 320° | - | - |
| 1778013004 | 17.22° C | 63% | 1010 hPa | - | 3.58 m/s, 310° | - | - |
| 1778011205 | 18.89° C | 48% | 1009 hPa | - | 2.24 m/s, 190° | - | - |
| 1778009405 | 18.89° C | 45% | 1010 hPa | - | 2.24 m/s, 170° | - | - |
| 1778005804 | 17.78° C | 72% | 1010 hPa | - | 2.68 m/s, 210° | - | - |
| 1778004004 | 18.89° C | 68% | 1010 hPa | - | 2.24 m/s, 210° | - | - |
| 1778002204 | 18.89° C | 68% | 1010 hPa | - | 1.34 m/s, 200° | - | - |
* Rain since midnight (hover to see other rain measurements)
** Current wind speed in m/s (hover to see current wind gust speed)